Weather History for Salt Lake City, UT

Change the Weather History Date:

Tuesday, July 9, 2013

  Actual Average Record
Temperature  
Mean Temperature 86 °F 78 °F  
Max Temperature 99 °F 92 °F 102 °F (1994)
Min Temperature 73 °F 64 °F 46 °F (1882)
Degree Days  
Heating Degree Days 0 0  
Month to date heating degree days 0 0  
Since 1 June heating degree days 4 46  
Since 1 July heating degree days 0 0  
Cooling Degree Days 21 13  
Month to date cooling degree days 173 106  
Year to date cooling degree days 566 343  
Since 1 June cooling degree days 496 293  
Growing Degree Days 36 (Base 50)    
Moisture  
Dew Point 45 °F    
Average Humidity 30    
Maximum Humidity 46    
Minimum Humidity 13    
Precipitation  
Precipitation 0.00 in 0.02 in 0.66 in (2001)
Month to date precipitation 0.82 0.14  
Year to date precipitation 6.94 9.35  
Snow  
Snow 0.00 in 0.00 in - ()
Month to date snowfall 0.0 0.0  
Since 1 July snowfall 0.0 0.0  
Snow Depth 0.00 in    
Sea Level Pressure  
Sea Level Pressure 29.89 in    
Wind  
Wind Speed 6 mph (ESE)    
Max Wind Speed 14 mph    
Max Gust Speed 21 mph    
Visibility 10 miles    
Events      
T = Trace of Precipitation, MM = Missing Value Source: NWS Daily Summary

Daily Weather History Graph

Daily Weather History Graph

Search for Another Location

Airport:

Trip Planner

Search our weather history database for the weather conditions in past years. The results will help you decide how hot, cold, wet, or windy it might be!

Date:

Astronomy

Jul. 09, 2013 Rise Set
Actual Time 6:05 AM MDT 9:00 PM MDT
Civil Twilight 5:32 AM MDT 9:33 PM MDT
Nautical Twilight 4:50 AM MDT 10:14 PM MDT
Astronomical Twilight 4:02 AM MDT 11:03 PM MDT
Moon 7:33 AM MDT (7/9) 9:39 PM MDT (7/9)
Length of Visible Light 16h 01m
Length of Day
14h 55m
New Moon, 2% of the Moon is Illuminated
Jul 9
New Moon
Jul 15
First Quarter
Jul 22
Full
Jul 29
Last Quarter
Aug 6
New

Hourly Weather History & Observations

Time (MDT) Temp. Dew Point Humidity Pressure Visibility Wind Dir Wind Speed Gust Speed Precip Events Conditions
12:53 AM 77.0 °F 46.9 °F 34% 29.85 in 10.0 mi SSE 8.1 mph - N/A   Partly Cloudy
1:53 AM 79.0 °F 46.9 °F 32% 29.86 in 10.0 mi South 6.9 mph - N/A   Mostly Cloudy
2:53 AM 78.1 °F 48.9 °F 36% 29.86 in 10.0 mi South 9.2 mph - N/A   Scattered Clouds
3:53 AM 75.9 °F 50.0 °F 40% 29.88 in 10.0 mi South 6.9 mph - N/A   Mostly Cloudy
4:53 AM 73.9 °F 53.1 °F 48% 29.88 in 10.0 mi SSE 5.8 mph - N/A   Mostly Cloudy
5:53 AM 75.9 °F 48.9 °F 38% 29.89 in 10.0 mi ESE 3.5 mph - N/A   Mostly Cloudy
6:53 AM 75.0 °F 50.0 °F 41% 29.92 in 10.0 mi SE 5.8 mph - N/A   Mostly Cloudy
7:53 AM 75.9 °F 50.0 °F 40% 29.94 in 10.0 mi ESE 4.6 mph - N/A   Mostly Cloudy
8:53 AM 84.0 °F 46.9 °F 27% 29.94 in 10.0 mi SE 5.8 mph - N/A   Scattered Clouds
9:53 AM 87.1 °F 48.0 °F 26% 29.95 in 10.0 mi Calm Calm - N/A   Partly Cloudy
10:53 AM 91.0 °F 48.0 °F 23% 29.95 in 10.0 mi WNW 5.8 mph - N/A   Partly Cloudy
11:53 AM 93.0 °F 46.9 °F 20% 29.95 in 10.0 mi NW 6.9 mph - N/A   Partly Cloudy
12:53 PM 95.0 °F 43.0 °F 17% 29.94 in 10.0 mi Calm Calm - N/A   Scattered Clouds
1:53 PM 97.0 °F 45.0 °F 17% 29.92 in 10.0 mi NNW 5.8 mph - N/A   Scattered Clouds
2:53 PM 98.1 °F 45.0 °F 16% 29.91 in 10.0 mi NNE 9.2 mph - N/A   Partly Cloudy
3:53 PM 99.0 °F 42.1 °F 14% 29.90 in 10.0 mi NNW 8.1 mph - N/A   Partly Cloudy
4:53 PM 99.0 °F 39.0 °F 13% 29.88 in 10.0 mi NNW 11.5 mph 17.3 mph N/A   Partly Cloudy
5:53 PM 98.1 °F 37.9 °F 12% 29.87 in 10.0 mi North 9.2 mph - N/A   Partly Cloudy
6:53 PM 96.1 °F 39.9 °F 14% 29.86 in 10.0 mi North 11.5 mph - N/A   Partly Cloudy
7:53 PM 93.9 °F 39.0 °F 15% 29.86 in 10.0 mi North 8.1 mph - N/A   Partly Cloudy
8:53 PM 91.0 °F 39.9 °F 17% 29.85 in 10.0 mi North 6.9 mph - N/A   Partly Cloudy
9:53 PM 82.9 °F 46.0 °F 27% 29.86 in 10.0 mi South 4.6 mph - N/A   Partly Cloudy
10:53 PM 82.0 °F 46.0 °F 28% 29.87 in 10.0 mi South 6.9 mph - N/A   Clear
11:53 PM 80.1 °F 46.0 °F 30% 29.87 in 10.0 mi SSE 5.8 mph - N/A   Clear